RH
14 15 14 22 26 30 31 32 23 18 13 14 10 11 5 4 4 5 5 4 5 5 5 5 6 5 5 12 13 6 6 5 5 8 40 59 30 22 45 25 32 30 36 39
17 19 25 32 32 31 28 25 16 12 9 7 7 8 4 4 3 3 3 2 2 2 2 2 3 4 5 5 7 11 8 6 6 5 26 60 41 44 54 46 20 30 30 36
24 26 31 35 35 31 25 18 8 4 2 2 3 4 4 6 12 2 4 15 38 43 10 5 2 1 2 3 4 5 7 7 6 5 36 49 45 54 36 18 12 29 43 40
30 33 38 39 32 25 13 8 3 2 3 7 9 4 36 13 30 20 59 57 52 54 42 41 39 18 4 2 2 3 3 5 6 6 15 14 38 22 9 14 48 55 50 50
37 40 40 35 26 13 4 3 2 4 6 9 23 91 100 54 67 62 63 76 87 62 47 37 43 58 36 15 4 2 2 2 5 6 7 26 35 39 27 30 60 64 53 54
50 50 44 25 9 5 3 3 6 10 22 18 98 72 100 68 50 43 49 64 83 68 47 46 20 8 24 28 12 9 4 2 3 5 6 30 63 95 91 56 100 79 65 61
55 51 29 9 4 3 3 6 14 22 91 83 96 88 73 61 48 32 34 66 76 62 37 49 35 18 9 9 10 15 9 5 4 4 7 16 46 64 93 74 97 100 94 71
69 37 11 6 4 3 3 12 20 30 62 73 44 82 62 73 54 33 37 79 77 78 51 46 48 50 58 45 42 30 36 15 8 7 10 14 33 54 80 86 92 96 84 74
32 10 6 4 3 4 8 16 25 30 41 22 70 60 54 75 43 34 58 83 96 80 94 87 62 74 99 88 99 70 99 66 18 11 31 52 58 60 56 79 98 99 89 75
12 6 4 3 4 6 14 23 27 53 55 50 100 51 58 75 63 61 61 77 92 94 93 35 46 100 80 89 97 100 85 79 55 53 71 93 100 100 72 93 97 79 88 81
5 4 4 3 5 12 19 30 38 52 53 39 39 57 50 77 57 57 71 84 93 97 99 99 27 98 60 98 52 83 100 99 68 63 51 83 88 98 96 100 88 100 89 65
5 4 3 4 6 14 22 30 36 60 66 65 69 47 68 71 60 63 78 94 96 97 100 100 98 54 100 52 65 67 78 100 100 85 100 72 46 83 99 98 78 65 74 84
5 5 6 6 15 16 35 30 31 57 65 59 61 50 73 74 66 75 93 95 97 98 99 100 100 100 100 81 95 55 77 70 87 90 92 100 82 62 69 26 29 58 65 83
4 3 3 6 11 22 21 23 44 59 57 70 98 66 73 75 80 94 89 93 89 98 100 100 100 100 100 100 86 100 48 63 69 50 40 39 68 60 55 58 75 65 66 58
3 3 4 7 12 47 29 32 65 66 56 54 67 86 91 80 99 100 93 100 100 100 100 100 100 100 100 100 100 95 70 49 47 54 70 69 66 78 81 65 89 98 80 97
3 5 8 11 23 58 42 74 84 71 56 78 90 86 77 95 100 100 92 91 99 100 100 100 100 100 100 100 100 100 100 100 100 81 97 94 99 98 97 100 97 90 91 75
3 3 9 22 39 42 43 86 99 90 87 91 87 95 97 94 98 100 97 98 100 100 100 100 100 100 100 100 100 100 100 100 100 99 99 99 93 84 69 62 56 50 51 45
3 2 16 44 39 52 66 77 97 100 90 100 100 100 99 100 100 100 95 99 100 100 99 98 96 98 94 100 100 100 100 100 100 99 98 97 91 83 76 65 59 65 70 68
2 2 11 58 56 47 79 89 93 98 100 98 93 96 99 99 93 97 98 92 94 93 74 31 21 32 36 32 53 49 79 98 100 98 96 95 93 88 82 76 74 74 78 78
3 3 5 27 54 64 62 74 90 99 100 100 100 100 98 96 78 81 83 68 55 32 18 20 24 29 30 26 24 22 22 21 20 20 22 25 29 27 29 28 32 28 25 26
3 3 3 25 44 58 72 71 72 96 100 100 100 100 100 90 62 59 40 29 39 38 38 40 42 40 36 30 27 26 24 24 25 23 22 21 19 18 19 18 20 20 20 21
4 4 5 7 47 74 63 77 78 98 98 99 100 100 100 98 78 52 51 43 38 43 39 14 9 7 7 6 6 6 6 6 6 6 5 5 5 5 5 5 5 4 4 4
4 6 17 26 40 60 70 83 96 100 100 100 100 93 76 50 42 42 46 50 42 14 8 8 9 8 8 7 6 6 6 6 6 6 6 6 6 5 5 4 4 4 4 5
5 6 8 16 43 59 76 94 99 100 98 100 96 73 53 47 50 52 49 33 12 10 10 11 11 9 8 7 6 6 5 5 4 5 5 5 6 7 7 6 6 7 7 8
6 9 13 17 40 67 94 100 100 100 100 100 99 89 84 77 61 46 32 14 11 11 15 12 10 8 7 6 6 5 5 6 7 8 9 10 12 13 12 11 11 12 12 12
9 11 13 17 41 84 82 98 100 100 100 100 100 100 99 92 59 32 18 12 13 16 15 13 10 8 8 8 10 12 13 14 14 14 15 16 17 18 18 17 15 14 15 16
Wind_Speed
41 44 45 42 42 41 41 41 43 46 49 50 52 53 62 68 72 73 74 78 80 82 82 83 81 79 74 74 75 74 72 66 64 62 62 61 60 57 51 44 44 43 41 40
47 45 43 42 41 40 41 42 45 50 53 55 56 58 65 68 75 78 78 78 80 85 89 91 92 92 88 82 79 78 79 75 71 65 64 62 61 57 56 50 46 47 47 45
45 46 43 41 40 40 41 43 47 51 54 57 61 60 61 58 61 65 43 30 35 46 57 65 75 87 95 94 85 84 83 83 78 71 67 66 65 63 61 57 52 49 50 46
44 44 41 39 39 40 42 46 48 51 50 48 49 56 34 39 29 27 28 32 39 42 43 42 40 46 61 82 89 93 90 86 86 80 73 70 67 65 60 60 57 51 51 46
42 38 37 37 38 40 44 46 47 44 41 45 35 21 27 15 25 31 27 32 39 40 38 37 44 46 48 49 63 76 89 89 88 83 78 70 71 65 67 65 67 59 54 49
37 36 35 35 37 41 43 41 38 32 34 37 16 18 23 22 28 25 27 36 37 36 29 32 38 42 41 44 46 53 73 83 88 86 80 75 70 68 69 69 72 63 53 51
36 35 34 34 37 39 37 34 24 28 25 15 17 22 20 25 27 27 29 35 30 26 22 30 36 36 32 32 36 43 70 85 88 88 83 80 74 69 70 66 24 74 56 45
35 33 30 32 33 34 35 22 21 26 24 22 16 19 22 26 26 30 32 34 39 22 17 18 18 13 10 14 19 28 51 74 81 83 85 82 76 75 73 80 72 40 40 44
30 30 29 31 31 28 26 19 25 27 24 19 19 16 22 26 26 28 30 34 32 27 18 20 13 11 16 7 7 17 23 41 59 66 73 74 76 76 79 76 76 83 42 42
26 27 27 29 28 24 17 23 25 24 23 20 17 21 22 27 26 24 27 32 29 22 16 7 7 9 8 3 6 14 14 26 41 54 67 68 68 76 70 73 84 68 43 47
23 23 25 25 24 20 16 24 23 22 23 24 26 24 26 28 27 23 24 24 21 15 13 5 5 3 4 4 4 14 14 19 37 43 54 59 50 70 46 56 49 46 51 55
20 22 22 21 21 18 21 25 23 21 18 18 21 25 24 29 21 19 21 21 17 15 15 8 7 7 14 5 8 16 18 24 17 51 45 57 64 63 53 53 59 60 57 60
21 20 19 22 18 20 25 25 24 23 19 16 20 24 24 24 16 17 17 15 16 14 14 13 1 14 10 13 8 9 13 21 29 24 29 50 60 62 60 61 54 56 55 61
20 17 18 18 19 23 24 24 22 23 19 17 23 24 24 17 14 9 12 17 16 17 15 11 7 8 10 20 14 15 13 16 19 24 29 31 36 46 55 50 58 60 59 58
15 15 17 17 17 21 24 22 19 22 20 23 22 22 19 12 7 8 10 10 12 15 15 13 11 11 8 4 22 20 20 19 19 20 22 32 36 36 40 45 49 52 58 41
13 14 15 16 17 15 15 14 16 17 19 23 19 11 15 16 11 11 8 8 11 12 10 12 12 11 10 9 6 13 25 31 25 25 29 25 32 37 33 19 30 26 27 27
12 14 14 16 17 18 15 9 16 16 15 8 9 10 9 9 9 7 8 9 10 8 7 8 10 11 12 11 11 11 10 8 9 10 9 14 10 12 14 17 24 27 28 30
11 13 15 16 19 21 17 11 10 14 16 12 8 8 8 9 11 10 10 11 11 10 11 12 13 12 13 12 11 11 8 7 6 4 3 4 5 8 11 15 19 20 22 25
10 13 18 17 18 23 19 15 13 14 17 20 17 14 16 14 14 14 14 14 15 15 14 12 11 10 10 10 10 10 9 8 8 7 6 3 4 7 9 12 15 16 17 19
10 12 17 21 22 24 24 24 21 19 22 22 21 22 22 19 15 13 13 12 11 10 10 9 10 10 9 8 8 7 8 7 7 7 7 8 9 10 12 14 17 19 18 20
11 14 16 20 25 29 24 24 25 21 21 22 23 22 25 20 14 13 10 8 6 6 6 7 8 9 9 11 11 12 12 12 13 14 14 16 17 19 21 23 24 26 27 28
13 15 19 22 25 28 26 25 24 23 22 23 21 20 17 15 12 11 11 8 6 6 5 4 6 7 9 11 12 13 14 14 15 17 19 21 23 26 28 30 32 34 36 38
15 17 20 23 24 27 28 28 25 21 21 24 21 18 15 14 14 13 12 11 8 5 3 4 8 10 12 14 16 17 19 21 22 25 28 31 33 34 38 40 42 43 44 46
17 18 20 22 22 24 26 26 27 26 22 24 21 19 18 17 16 16 15 12 9 6 6 9 12 16 17 19 21 24 26 28 31 33 34 34 34 31 32 33 31 33 35 38
15 18 17 19 20 19 18 23 21 21 21 22 25 22 20 19 18 17 16 13 9 8 8 12 17 19 21 23 25 27 29 30 30 29 27 26 27 29 31 31 33 34 37 41
17 16 18 19 19 17 17 18 21 23 23 24 25 24 22 21 19 18 15 11 9 9 10 16 20 21 22 22 21 20 22 23 25 28 29 29 30 32 34 35 39 42 46 50
Wind_Direction
287 290 288 285 283 283 282 281 281 281 284 284 283 284 283 282 281 280 279 277 275 273 271 267 264 255 251 246 243 240 244 243 242 238 236 237 242 248 250 244 249 251 253 257
283 285 284 281 281 280 281 283 286 288 289 288 287 288 287 294 290 284 283 282 278 273 268 265 262 260 254 246 243 239 239 240 240 239 238 237 242 247 252 251 243 249 250 252
283 281 280 279 280 281 282 284 288 292 294 294 290 291 295 295 291 291 290 284 284 280 274 270 265 261 256 250 243 239 237 237 237 233 232 235 239 240 244 247 246 244 249 250
278 277 277 279 280 283 285 290 294 297 298 305 305 299 294 295 285 295 296 294 292 286 282 277 271 267 259 250 245 236 234 233 233 235 232 233 236 240 244 247 249 239 244 246
277 277 277 279 282 284 292 296 298 298 305 310 309 298 287 301 308 298 302 306 305 291 284 279 276 271 266 260 247 235 231 229 229 231 233 233 236 237 241 245 246 235 235 242
276 275 275 278 284 289 295 300 299 308 316 314 296 318 287 308 303 285 310 317 319 309 275 285 282 277 271 263 256 239 221 218 223 226 227 230 229 229 237 242 230 225 229 234
272 271 272 279 287 293 300 299 309 311 315 311 280 305 315 315 312 313 309 330 329 309 286 286 290 288 277 266 255 235 219 214 211 218 222 224 224 227 234 241 196 208 214 231
269 270 273 283 291 299 303 299 303 296 299 263 277 298 316 322 314 316 316 326 334 323 277 317 292 291 299 273 244 226 227 220 211 211 215 221 222 224 227 238 244 234 217 229
263 268 278 286 294 300 294 290 296 289 302 265 286 289 319 319 318 316 318 323 332 335 314 286 304 324 308 246 240 217 212 222 216 208 209 211 216 221 227 234 241 247 258 244
262 271 279 289 295 295 275 293 288 291 293 267 260 289 310 316 313 308 320 328 329 338 334 334 320 326 294 161 189 185 194 222 207 209 208 210 216 220 228 238 242 243 247 247
262 275 283 290 290 278 274 288 279 283 282 264 266 280 308 311 312 306 330 333 335 340 352 238 318 302 331 255 187 191 207 189 202 206 212 213 216 219 221 233 232 237 247 252
266 271 281 284 282 262 268 285 289 277 277 260 271 280 300 310 305 312 326 338 356 9 2 10 205 235 271 225 228 204 212 202 211 205 213 216 220 223 221 231 244 249 250 252
260 268 276 281 275 261 270 281 292 270 254 251 270 284 299 303 300 321 332 335 5 19 12 1 137 222 239 163 214 218 230 213 221 233 223 212 223 227 234 240 245 249 254 257
259 269 273 273 268 268 275 283 281 253 244 247 266 275 291 291 301 319 352 14 14 20 20 17 15 67 236 204 196 217 212 229 229 224 226 231 227 231 228 242 244 247 251 250
261 271 275 253 266 267 276 279 259 244 248 247 258 273 272 264 282 311 336 357 15 29 28 30 42 53 63 92 194 214 204 209 218 227 235 237 237 234 245 242 245 252 253 245
263 268 266 253 260 252 265 262 251 242 246 252 261 239 250 273 282 278 325 5 19 19 26 40 60 67 68 74 108 204 209 222 206 225 215 241 226 237 240 244 250 248 254 247
261 271 261 253 256 254 257 274 230 235 248 233 231 243 246 252 283 291 312 334 338 343 356 24 38 44 55 66 86 91 119 129 162 166 173 206 222 230 250 255 261 262 262 259
262 263 248 257 262 262 266 269 257 247 249 245 253 246 250 271 282 283 294 309 319 331 344 359 16 18 28 38 45 52 59 79 97 111 178 225 249 256 268 273 270 269 269 267
261 261 243 247 265 256 256 266 268 273 258 244 253 259 255 256 276 279 286 292 304 317 335 355 10 19 16 13 17 18 17 21 31 18 1 329 268 260 260 264 270 270 270 271
272 262 248 241 249 261 252 258 261 264 259 258 254 251 244 248 253 267 276 286 299 320 340 359 11 16 12 17 22 13 10 15 1 347 332 320 306 302 297 288 283 283 283 279
275 273 260 246 246 251 254 250 252 257 253 255 256 256 250 231 241 252 259 261 283 303 318 325 334 337 342 347 349 346 343 339 334 330 321 313 311 307 304 300 298 297 293 289
275 274 264 257 246 251 252 251 252 251 257 255 248 248 234 228 232 242 245 244 253 277 300 326 351 343 339 340 338 335 331 325 320 316 312 308 307 305 303 302 300 297 295 293
270 270 260 256 255 253 252 246 246 249 259 246 235 235 233 232 232 234 239 245 246 227 240 304 323 323 322 321 319 316 313 312 309 307 304 301 299 297 297 295 293 292 290 289
276 266 261 260 259 261 254 252 248 254 256 249 231 232 231 232 237 240 241 231 218 232 275 311 320 318 314 314 312 309 306 303 303 301 299 298 299 299 300 298 299 300 302 302
275 264 263 263 260 261 259 248 245 248 249 247 232 229 235 239 242 239 233 224 229 253 292 319 319 316 315 313 310 306 306 306 305 302 301 301 303 306 305 303 301 301 301 304
269 266 263 258 256 260 264 258 240 239 237 239 236 233 234 237 241 238 232 235 248 277 312 322 319 316 312 312 313 312 309 305 303 301 301 300 301 304 306 306 305 303 302 306